Location: Hamburg
(53.5554°N, 9.9941°E)
Time: 14:54:21
(UTC+01:00)

N. Korean satellite - Visible Passes

Search period start: 24 February 2018 00:00
Search period end: 06 March 2018 00:00
Orbit: 459 x 514 km, 97.2° (Epoch: 23 February)

Date Brightness Start Highest point End Pass type
(mag) Time Alt. Az. Time Alt. Az. Time Alt. Az.
24 Feb 8.6 06:40:03 10° NNE 06:43:29 36° E 06:46:56 10° SSE visible
24 Feb 9.5 18:56:30 10° SW 18:59:17 22° W 19:02:06 10° NW visible
25 Feb 9.7 06:16:41 10° NE 06:19:35 21° E 06:22:30 10° SE visible
25 Feb 8.3 18:32:05 10° SSW 18:35:22 38° W 18:38:43 10° NNW visible
26 Feb 10.4 05:53:50 10° ENE 05:55:36 13° E 05:57:23 10° ESE visible
27 Feb 10.1 19:19:52 10° WSW 19:21:42 14° W 19:23:33 10° WNW visible
28 Feb 9.4 18:54:52 10° SSW 18:57:42 23° W 19:00:37 10° NW visible
01 Mar 9.8 06:15:08 10° NE 06:18:03 21° E 06:20:57 10° SE visible
01 Mar 8.2 18:30:28 10° S 18:33:47 39° W 18:37:12 10° NNW visible
02 Mar 10.4 05:52:18 10° ENE 05:54:03 13° E 05:55:47 10° ESE visible
03 Mar 10.1 19:18:08 10° WSW 19:20:06 14° W 19:22:06 10° NW visible
04 Mar 9.4 18:53:11 10° SSW 18:56:06 24° W 18:59:05 10° NW visible
05 Mar 9.9 06:13:34 10° NE 06:16:28 21° E 06:19:21 10° SE visible
